DECAYED

STARLINK-2052, 47662 (Decayed)

Orbit data source: Space-Track

STARLINK-2052, 47662 was a payload satellite owned by SpaceX/Seattle (US) in LEO that was launched on Tue, 16 Feb 2021 UTC via an FALCON 9 launch vehicle from the Air Force Eastern Test Range (AFETR). Payload-class satellites include a variety of spacecraft equipped with specific instruments for various scientific and technological missions. These include communications satellites like Starlink; space stations such as the ISS; scientific satellites like the Hubble; Earth observation satellites from companies like Planet Labs, Umbra, and HawkEye 360; GPS; miniature CubeSats for education and research; and military/defense satellites.

Not visible in the next 10 days
Identifier
47662, 2021-012AU
Orbit
Decayed
Country
Flag of USUS
Related business
Manufacturer
SpaceX/Seattle
Mission
Decayed Commercial Communications
Bus & Motor
STARLINK, Unknown motor
Mass
260 kg wet, ~248 kg dry
Launch date (UTC)
2021-02-16 (5 years ago)
Launch vehicle
FALCON 9
Launch site
Air Force Eastern Test Range (AFETR)
Object type
Payload
Rocket body
Debris
Shape & HBR
Box + 1 Pan, 10.1 m
Radar Cross Section
13.562 m², Large (>1 m²)

Expand to show TLE details & history
Last TLE update: 4 months ago

TLE from 4 months ago
0 STARLINK-2052
1 47662U 21012AU  26050.58432453  .11519829  12444-4  49506-3 0  9990
2 47662  53.0165  57.8418 0002797 244.4995 115.5763 16.43638128278593
Epoch: 2026-02-19T14:01Z
TLE epoch observation values (Epoch: 2026-02-19T14:01:25.639Z)
Latitude
-0.00006°
Longitude
57.95141°
Altitude
157.859 km
Speed
7.812 km/s
True Right ascension
03h 51m 22s
True Declination
0° 00' 00"
Sunlit
Object was in daylight at epoch
Visualization orbit readout
Latitude
Unknown
Longitude
Unknown
Altitude
Unknown
Speed
Unknown
Apparent Right ascension
Unknown
Apparent Declination
Unknown
Sunlit
N/A
Visualization observer readout
Local Sidereal Time
21:46:18
Azimuth
Unknown
Elevation
Unknown
Doppler factor
Unknown
Orbital elements
Apogee altitude
158.263 km
Perigee altitude
154.608 km
Semi-major axis
6,534.572 km
Eccentricity
0.00028
Inclination
53.0165°
RAAN
57.8418°
Arg. of periapsis
244.4995°
True anomaly
115.60521°
Mean anomaly
115.5763°
Eccentric anomaly
115.59075°
Mean motion
4.10882 °/min
Orbital period
87.62 mins
BSTAR
0.00049506
Loading maneuver chart data...
Computing Atmospheric mass density...

Documentation

Showing up to 5 results
|